Location: Newark
(49.8969°N, 3.3422°E)
Time: 23:48:01
(UTC+00:00)

Explorer 7 - Pass Details

Date: 25 January 2020
Orbit: 485 x 679 km, 50.3° (Epoch: 24 February)

Event Time Altitude Azimuth Distance (km) Brightness Sun altitude
Rises 22:35:18 0° 227° (SW) 2,564 - -54.8°
Reaches altitude 10° 22:37:35 10° 219° (SW) 1,672 - -55.0°
Maximum altitude 22:41:03 36° 151° (SSE) 777 - -55.3°
Drops below altitude 10° 22:44:32 10° 83° (E) 1,672 - -55.6°
Sets 22:46:49 0° 75° (ENE) 2,565 - -55.8°
